This is the latest recevied weather packets stored in our database for station/object EA2MKR. If no packets are shown the sender has not sent any weather packets the latest 10 day(s).
| Time | Temp. | Humidity | Pressure | Rain* | Wind** | Luminosity | Snow |
|---|---|---|---|---|---|---|---|
| 1777912240 | 12.22° C | 81% | 950 hPa | 0 mm | - | - | - |
| 1777911939 | 12.78° C | 82% | 950 hPa | 0 mm | - | - | - |
| 1777911641 | 12.78° C | 81% | 949.9 hPa | 0 mm | - | - | - |
| 1777911432 | 12.78° C | 82% | 949.9 hPa | 0 mm | - | - | - |
| 1777911039 | 12.78° C | 81% | 949.8 hPa | 0 mm | - | - | - |
| 1777910739 | 12.22° C | 81% | 949.8 hPa | 0 mm | - | - | - |
| 1777910440 | 12.22° C | 83% | 949.9 hPa | 0 mm | - | - | - |
| 1777910139 | 12.22° C | 83% | 949.8 hPa | 0 mm | - | - | - |
| 1777909838 | 12.22° C | 85% | 949.8 hPa | 0 mm | - | - | - |
| 1777909538 | 12.22° C | 84% | 949.8 hPa | 0 mm | - | - | - |
| 1777909239 | 12.22° C | 84% | 949.8 hPa | 0 mm | - | - | - |
| 1777908939 | 12.22° C | 84% | 949.7 hPa | 0 mm | - | - | - |
| 1777908639 | 12.22° C | 83% | 949.5 hPa | 0 mm | - | - | - |
| 1777908338 | 12.22° C | 82% | 949.4 hPa | 0 mm | - | - | - |
| 1777908038 | 12.22° C | 81% | 949.3 hPa | 0 mm | - | - | - |
| 1777907739 | 12.78° C | 79% | 949.4 hPa | 0 mm | - | - | - |
| 1777907439 | 12.78° C | 81% | 949.6 hPa | 0 mm | - | - | - |
| 1777907137 | 12.78° C | 79% | 949.6 hPa | 0 mm | - | - | - |
| 1777906838 | 13.33° C | 79% | 949.7 hPa | 0 mm | - | - | - |
| 1777906538 | 13.33° C | 80% | 949.7 hPa | 0 mm | - | - | - |
| 1777906237 | 12.78° C | 83% | 949.6 hPa | 0 mm | - | - | - |
| 1777905935 | 12.78° C | 82% | 949.5 hPa | 0 mm | - | - | - |
| 1777905634 | 12.78° C | 83% | 949.6 hPa | 0 mm | - | - | - |
| 1777905335 | 12.78° C | 82% | 949.5 hPa | 0 mm | - | - | - |
| 1777905034 | 12.78° C | 82% | 949.5 hPa | 0 mm | - | - | - |
* Rain latest hour (hover to see other rain measurements)
** Current wind speed in m/s (hover to see current wind gust speed)